FAB2287 SBUF-SBNT

Flight info

Callsign FAB2287
Flight time 1h 15m
Altitude 9000
Route DCT 7 46 46 S 36 51 0 W DCT
Aircraft C95M/L-SDE3/C

Departure

Time 2026-05-05 09:49
Airport Paulo Afonso Airport (SBUF)

Arrival

Time 2026-05-05 11:04
Airport Natal Air Force Base (SBNT)
Time Latitude Longitude Altitude Speed Heading
2026-05-05 09:42 -9.40007 -38.25314 888 ft 0 kts 24°
2026-05-05 09:46 -9.40017 -38.25322 888 ft 6 kts 252°
2026-05-05 09:46 -9.40027 -38.25348 888 ft 7 kts 236°
2026-05-05 09:46 -9.40073 -38.25377 888 ft 13 kts 207°
2026-05-05 09:47 -9.40090 -38.25462 888 ft 14 kts 294°
2026-05-05 09:47 -9.40019 -38.25600 888 ft 29 kts 296°
2026-05-05 09:47 -9.39906 -38.25835 888 ft 33 kts 296°
2026-05-05 09:47 -9.39835 -38.26006 888 ft 11 kts 255°
2026-05-05 09:48 -9.39825 -38.26000 888 ft 18 kts 111°
2026-05-05 09:48 -9.39953 -38.25724 888 ft 74 kts 116°
2026-05-05 09:48 -9.40244 -38.25118 973 ft 108 kts 116°
2026-05-05 09:48 -9.40609 -38.24373 1192 ft 129 kts 118°
2026-05-05 09:49 -9.41053 -38.23521 1461 ft 144 kts 117°
2026-05-05 09:49 -9.41513 -38.22577 1693 ft 156 kts 115°
2026-05-05 09:49 -9.41783 -38.21484 1907 ft 165 kts 86°
2026-05-05 09:49 -9.41362 -38.20403 2128 ft 172 kts 50°
2026-05-05 09:50 -9.40455 -38.19597 2380 ft 177 kts 36°
2026-05-05 09:50 -9.39421 -38.18883 2590 ft 182 kts 34°
2026-05-05 09:50 -9.38358 -38.18148 2797 ft 185 kts 35°
2026-05-05 09:50 -9.37313 -38.17386 3000 ft 187 kts 36°
2026-05-05 09:51 -9.36262 -38.16584 3204 ft 189 kts 37°
2026-05-05 09:51 -9.35231 -38.15770 3404 ft 190 kts 38°
2026-05-05 09:51 -9.34197 -38.14934 3605 ft 191 kts 39°
2026-05-05 09:51 -9.33155 -38.14081 3808 ft 192 kts 39°
2026-05-05 09:52 -9.32117 -38.13224 4009 ft 193 kts 39°
2026-05-05 09:52 -9.31084 -38.12366 4209 ft 193 kts 39°
2026-05-05 09:52 -9.30036 -38.11493 4413 ft 194 kts 39°
2026-05-05 09:52 -9.29000 -38.10627 4613 ft 194 kts 38°
2026-05-05 09:53 -9.27963 -38.09760 4813 ft 194 kts 38°
2026-05-05 09:53 -9.26921 -38.08888 5013 ft 195 kts 38°
2026-05-05 09:53 -9.25879 -38.08016 5212 ft 195 kts 37°
2026-05-05 09:53 -9.24825 -38.07135 5412 ft 196 kts 37°
2026-05-05 09:54 -9.23766 -38.06249 5612 ft 197 kts 36°
2026-05-05 09:54 -9.22720 -38.05376 5809 ft 198 kts 36°
2026-05-05 09:54 -9.21642 -38.04476 6009 ft 199 kts 35°
2026-05-05 09:54 -9.20573 -38.03584 6207 ft 201 kts 35°
2026-05-05 09:55 -9.19496 -38.02686 6404 ft 203 kts 35°
2026-05-05 09:55 -9.18384 -38.01759 6605 ft 206 kts 35°
2026-05-05 09:55 -9.17277 -38.00836 6807 ft 208 kts 35°
2026-05-05 09:55 -9.16165 -37.99908 7008 ft 209 kts 35°
2026-05-05 09:56 -9.15031 -37.98962 7211 ft 210 kts 35°
2026-05-05 09:56 -9.13902 -37.98019 7412 ft 211 kts 35°
2026-05-05 09:56 -9.12770 -37.97074 7612 ft 211 kts 35°
2026-05-05 09:56 -9.11642 -37.96132 7811 ft 212 kts 35°
2026-05-05 09:57 -9.10501 -37.95179 8012 ft 212 kts 35°
2026-05-05 09:57 -9.09355 -37.94222 8213 ft 213 kts 35°
2026-05-05 09:57 -9.08221 -37.93275 8412 ft 213 kts 35°
2026-05-05 09:57 -9.07069 -37.92313 8613 ft 214 kts 35°
2026-05-05 09:58 -9.05932 -37.91363 8802 ft 214 kts 35°
2026-05-05 09:58 -9.04760 -37.90386 8937 ft 218 kts 35°
2026-05-05 09:58 -9.03582 -37.89406 8989 ft 224 kts 35°
2026-05-05 09:58 -9.02355 -37.88385 9003 ft 230 kts 35°
2026-05-05 09:59 -9.01105 -37.87344 9004 ft 235 kts 35°
2026-05-05 09:59 -8.99849 -37.86297 9003 ft 238 kts 35°
2026-05-05 09:59 -8.98554 -37.85216 9002 ft 240 kts 35°
2026-05-05 09:59 -8.97253 -37.84131 9002 ft 242 kts 36°
2026-05-05 10:00 -8.95964 -37.83054 9001 ft 243 kts 36°
2026-05-05 10:00 -8.94703 -37.82001 9001 ft 244 kts 36°
2026-05-05 10:00 -8.93733 -37.81191 9001 ft 244 kts 36°
2026-05-05 10:00 -8.92420 -37.80095 9000 ft 244 kts 36°
2026-05-05 10:01 -8.91120 -37.79010 9000 ft 244 kts 36°
2026-05-05 10:01 -8.89801 -37.77909 9000 ft 245 kts 36°
2026-05-05 10:01 -8.88483 -37.76811 9000 ft 245 kts 36°
2026-05-05 10:01 -8.87181 -37.75725 9000 ft 245 kts 36°
2026-05-05 10:02 -8.85861 -37.74624 9000 ft 245 kts 36°
2026-05-05 10:02 -8.84556 -37.73536 9000 ft 245 kts 36°
2026-05-05 10:02 -8.83230 -37.72431 9000 ft 245 kts 36°
2026-05-05 10:02 -8.81927 -37.71345 9000 ft 245 kts 36°
2026-05-05 10:03 -8.80604 -37.70243 9000 ft 245 kts 36°
2026-05-05 10:03 -8.79286 -37.69144 9000 ft 245 kts 36°
2026-05-05 10:03 -8.77983 -37.68059 9000 ft 245 kts 36°
2026-05-05 10:03 -8.76661 -37.66958 9000 ft 245 kts 36°
2026-05-05 10:04 -8.75339 -37.65856 9000 ft 245 kts 36°
2026-05-05 10:04 -8.74033 -37.64769 9000 ft 245 kts 36°
2026-05-05 10:04 -8.72706 -37.63664 9000 ft 245 kts 36°
2026-05-05 10:04 -8.71404 -37.62580 9000 ft 245 kts 36°
2026-05-05 10:05 -8.70084 -37.61481 9000 ft 245 kts 36°
2026-05-05 10:05 -8.68780 -37.60395 9000 ft 245 kts 36°
2026-05-05 10:05 -8.67450 -37.59288 9000 ft 245 kts 36°
2026-05-05 10:05 -8.66133 -37.58191 9000 ft 245 kts 36°
2026-05-05 10:06 -8.64828 -37.57106 9000 ft 245 kts 36°
2026-05-05 10:06 -8.63501 -37.56001 9000 ft 245 kts 36°
2026-05-05 10:06 -8.62181 -37.54902 9000 ft 245 kts 36°
2026-05-05 10:06 -8.60877 -37.53818 9000 ft 245 kts 36°
2026-05-05 10:07 -8.59560 -37.52722 9000 ft 245 kts 36°
2026-05-05 10:07 -8.58236 -37.51620 9000 ft 245 kts 36°
2026-05-05 10:07 -8.56930 -37.50534 9000 ft 245 kts 36°
2026-05-05 10:07 -8.55614 -37.49439 9000 ft 245 kts 35°
2026-05-05 10:08 -8.54292 -37.48340 9000 ft 245 kts 35°
2026-05-05 10:08 -8.52986 -37.47254 9000 ft 245 kts 35°
2026-05-05 10:08 -8.51663 -37.46154 9000 ft 245 kts 35°
2026-05-05 10:08 -8.50340 -37.45054 9000 ft 245 kts 35°
2026-05-05 10:09 -8.49042 -37.43975 9000 ft 245 kts 35°
2026-05-05 10:09 -8.47719 -37.42875 9000 ft 245 kts 35°
2026-05-05 10:09 -8.46409 -37.41787 9000 ft 245 kts 35°
2026-05-05 10:09 -8.45086 -37.40687 9000 ft 245 kts 35°
2026-05-05 10:10 -8.43763 -37.39587 9000 ft 245 kts 35°
2026-05-05 10:10 -8.42453 -37.38499 9000 ft 245 kts 35°
2026-05-05 10:10 -8.41130 -37.37400 9000 ft 245 kts 35°
2026-05-05 10:10 -8.39819 -37.36311 9000 ft 245 kts 35°
2026-05-05 10:11 -8.38495 -37.35210 9000 ft 245 kts 35°
2026-05-05 10:11 -8.37188 -37.34125 9000 ft 245 kts 35°
2026-05-05 10:11 -8.35867 -37.33027 9000 ft 245 kts 35°
2026-05-05 10:11 -8.34559 -37.31941 9000 ft 245 kts 35°
2026-05-05 10:12 -8.33238 -37.30844 9000 ft 245 kts 35°
2026-05-05 10:12 -8.31911 -37.29742 9000 ft 245 kts 35°
2026-05-05 10:12 -8.30603 -37.28656 9000 ft 245 kts 35°
2026-05-05 10:12 -8.29279 -37.27557 9000 ft 245 kts 35°
2026-05-05 10:13 -8.27967 -37.26468 9000 ft 245 kts 35°
2026-05-05 10:13 -8.26645 -37.25371 9000 ft 245 kts 35°
2026-05-05 10:13 -8.25329 -37.24278 9000 ft 245 kts 35°
2026-05-05 10:13 -8.24024 -37.23195 9000 ft 245 kts 35°
2026-05-05 10:14 -8.23144 -37.22465 9000 ft 245 kts 35°
2026-05-05 10:14 -8.21387 -37.21007 9000 ft 245 kts 35°
2026-05-05 10:14 -8.20062 -37.19908 9000 ft 245 kts 35°
2026-05-05 10:14 -8.18752 -37.18821 9000 ft 245 kts 35°
2026-05-05 10:15 -8.17423 -37.17719 9000 ft 245 kts 35°
2026-05-05 10:15 -8.16113 -37.16632 9000 ft 245 kts 35°
2026-05-05 10:15 -8.14789 -37.15534 9000 ft 245 kts 35°
2026-05-05 10:15 -8.13484 -37.14451 9000 ft 245 kts 35°
2026-05-05 10:16 -8.12604 -37.13721 9000 ft 245 kts 35°
2026-05-05 10:16 -8.10834 -37.12254 9000 ft 245 kts 35°
2026-05-05 10:16 -8.09959 -37.11528 9000 ft 245 kts 35°
2026-05-05 10:16 -8.08209 -37.10077 9000 ft 245 kts 35°
2026-05-05 10:17 -8.07334 -37.09352 9000 ft 245 kts 35°
2026-05-05 10:17 -8.06009 -37.08253 9000 ft 245 kts 35°
2026-05-05 10:17 -8.04687 -37.07158 9000 ft 245 kts 35°
2026-05-05 10:17 -8.03376 -37.06072 9000 ft 245 kts 35°
2026-05-05 10:18 -8.02055 -37.04977 9000 ft 245 kts 35°
2026-05-05 10:18 -8.00733 -37.03881 9000 ft 245 kts 35°
2026-05-05 10:18 -7.99424 -37.02796 9000 ft 245 kts 35°
2026-05-05 10:18 -7.98097 -37.01697 9000 ft 245 kts 35°
2026-05-05 10:19 -7.96789 -37.00614 9000 ft 245 kts 35°
2026-05-05 10:19 -7.95463 -36.99515 9000 ft 245 kts 35°
2026-05-05 10:19 -7.94138 -36.98418 9000 ft 245 kts 35°
2026-05-05 10:19 -7.92825 -36.97330 9000 ft 245 kts 35°
2026-05-05 10:20 -7.91509 -36.96240 9000 ft 245 kts 35°
2026-05-05 10:20 -7.90185 -36.95143 9000 ft 245 kts 35°
2026-05-05 10:20 -7.88858 -36.94044 9000 ft 245 kts 35°
2026-05-05 10:20 -7.87554 -36.92965 9000 ft 245 kts 35°
2026-05-05 10:21 -7.86226 -36.91865 9000 ft 245 kts 35°
2026-05-05 10:21 -7.84917 -36.90782 9000 ft 245 kts 35°
2026-05-05 10:21 -7.83594 -36.89686 9000 ft 245 kts 35°
2026-05-05 10:21 -7.82265 -36.88586 9000 ft 245 kts 35°
2026-05-05 10:22 -7.80958 -36.87504 9000 ft 245 kts 35°
2026-05-05 10:22 -7.79627 -36.86411 9000 ft 245 kts 34°
2026-05-05 10:22 -7.78279 -36.85365 9000 ft 245 kts 33°
2026-05-05 10:22 -7.76925 -36.84353 9000 ft 244 kts 32°
2026-05-05 10:23 -7.75545 -36.83344 9000 ft 244 kts 31°
2026-05-05 10:23 -7.74173 -36.82353 9000 ft 244 kts 31°
2026-05-05 10:23 -7.72780 -36.81352 9000 ft 244 kts 31°
2026-05-05 10:23 -7.71403 -36.80367 9000 ft 244 kts 31°
2026-05-05 10:24 -7.70014 -36.79376 9000 ft 244 kts 31°
2026-05-05 10:24 -7.68624 -36.78385 9000 ft 244 kts 31°
2026-05-05 10:24 -7.67244 -36.77401 9000 ft 244 kts 31°
2026-05-05 10:24 -7.65846 -36.76406 9000 ft 244 kts 31°
2026-05-05 10:25 -7.64472 -36.75428 9000 ft 244 kts 31°
2026-05-05 10:25 -7.63074 -36.74434 9000 ft 244 kts 31°
2026-05-05 10:25 -7.61700 -36.73456 9000 ft 244 kts 31°
2026-05-05 10:25 -7.60309 -36.72467 9000 ft 244 kts 31°
2026-05-05 10:26 -7.58913 -36.71474 9000 ft 244 kts 31°
2026-05-05 10:26 -7.57522 -36.70485 9000 ft 244 kts 31°
2026-05-05 10:26 -7.56147 -36.69507 9000 ft 244 kts 31°
2026-05-05 10:26 -7.54756 -36.68518 9000 ft 244 kts 31°
2026-05-05 10:27 -7.53370 -36.67533 9000 ft 244 kts 31°
2026-05-05 10:27 -7.51976 -36.66542 9000 ft 244 kts 31°
2026-05-05 10:27 -7.50587 -36.65555 9000 ft 244 kts 31°
2026-05-05 10:27 -7.49194 -36.64565 9000 ft 244 kts 31°
2026-05-05 10:28 -7.47815 -36.63585 9000 ft 244 kts 31°
2026-05-05 10:28 -7.46423 -36.62595 9000 ft 244 kts 31°
2026-05-05 10:28 -7.45032 -36.61607 9000 ft 244 kts 31°
2026-05-05 10:28 -7.43654 -36.60629 9000 ft 244 kts 31°
2026-05-05 10:29 -7.42264 -36.59641 9000 ft 244 kts 31°
2026-05-05 10:29 -7.40870 -36.58651 9000 ft 244 kts 31°
2026-05-05 10:29 -7.39490 -36.57671 9000 ft 244 kts 31°
2026-05-05 10:29 -7.38098 -36.56682 9000 ft 244 kts 31°
2026-05-05 10:30 -7.36722 -36.55704 9000 ft 244 kts 31°
2026-05-05 10:30 -7.35325 -36.54712 9000 ft 244 kts 31°
2026-05-05 10:30 -7.33930 -36.53722 9000 ft 244 kts 31°
2026-05-05 10:30 -7.32540 -36.52735 9000 ft 244 kts 31°
2026-05-05 10:31 -7.31166 -36.51759 9000 ft 244 kts 31°
2026-05-05 10:31 -7.29765 -36.50765 9000 ft 244 kts 31°
2026-05-05 10:31 -7.28368 -36.49773 9000 ft 244 kts 31°
2026-05-05 10:31 -7.26995 -36.48798 9000 ft 244 kts 31°
2026-05-05 10:32 -7.25603 -36.47810 9000 ft 244 kts 31°
2026-05-05 10:32 -7.24203 -36.46817 9000 ft 244 kts 31°
2026-05-05 10:32 -7.22825 -36.45839 9000 ft 244 kts 31°
2026-05-05 10:32 -7.21440 -36.44856 9000 ft 244 kts 31°
2026-05-05 10:33 -7.20043 -36.43865 9000 ft 244 kts 31°
2026-05-05 10:33 -7.18649 -36.42876 9000 ft 244 kts 31°
2026-05-05 10:33 -7.17269 -36.41896 9000 ft 244 kts 31°
2026-05-05 10:33 -7.15875 -36.40908 9000 ft 244 kts 31°
2026-05-05 10:34 -7.14497 -36.39930 9000 ft 244 kts 31°
2026-05-05 10:34 -7.13102 -36.38941 9000 ft 244 kts 31°
2026-05-05 10:34 -7.11705 -36.37950 9000 ft 244 kts 31°
2026-05-05 10:34 -7.10330 -36.36975 9000 ft 244 kts 31°
2026-05-05 10:35 -7.08936 -36.35986 9000 ft 244 kts 31°
2026-05-05 10:35 -7.07541 -36.34997 9000 ft 244 kts 31°
2026-05-05 10:35 -7.06161 -36.34019 9000 ft 244 kts 31°
2026-05-05 10:35 -7.04766 -36.33030 9000 ft 244 kts 31°
2026-05-05 10:36 -7.03374 -36.32043 9000 ft 244 kts 31°
2026-05-05 10:36 -7.01984 -36.31058 9000 ft 244 kts 31°
2026-05-05 10:36 -7.00585 -36.30066 9000 ft 244 kts 31°
2026-05-05 10:36 -6.99206 -36.29089 9000 ft 244 kts 31°
2026-05-05 10:37 -6.97807 -36.28098 9000 ft 244 kts 31°
2026-05-05 10:37 -6.96425 -36.27118 9000 ft 244 kts 31°
2026-05-05 10:37 -6.95029 -36.26129 9000 ft 244 kts 31°
2026-05-05 10:37 -6.93643 -36.25147 9000 ft 244 kts 31°
2026-05-05 10:38 -6.92265 -36.24170 9000 ft 244 kts 31°
2026-05-05 10:38 -6.90866 -36.23179 9000 ft 244 kts 31°
2026-05-05 10:38 -6.89470 -36.22191 9000 ft 244 kts 31°
2026-05-05 10:38 -6.88093 -36.21216 9000 ft 244 kts 31°
2026-05-05 10:39 -6.86694 -36.20224 9000 ft 244 kts 31°
2026-05-05 10:39 -6.85304 -36.19240 9000 ft 244 kts 31°
2026-05-05 10:39 -6.83923 -36.18262 9000 ft 244 kts 31°
2026-05-05 10:39 -6.82522 -36.17269 9000 ft 244 kts 31°
2026-05-05 10:40 -6.81140 -36.16291 9000 ft 244 kts 31°
2026-05-05 10:40 -6.79743 -36.15302 9000 ft 244 kts 31°
2026-05-05 10:40 -6.78363 -36.14325 9000 ft 244 kts 31°
2026-05-05 10:40 -6.76963 -36.13334 9000 ft 244 kts 31°
2026-05-05 10:41 -6.75570 -36.12348 9000 ft 244 kts 31°
2026-05-05 10:41 -6.74190 -36.11371 9000 ft 244 kts 31°
2026-05-05 10:41 -6.72790 -36.10380 9000 ft 244 kts 31°
2026-05-05 10:41 -6.71404 -36.09399 9000 ft 244 kts 31°
2026-05-05 10:42 -6.68622 -36.07431 9000 ft 244 kts 31°
2026-05-05 10:42 -6.67227 -36.06443 9000 ft 244 kts 31°
2026-05-05 10:42 -6.65830 -36.05455 9000 ft 244 kts 31°
2026-05-05 10:43 -6.64449 -36.04478 9000 ft 244 kts 31°
2026-05-05 10:43 -6.63057 -36.03493 9000 ft 244 kts 31°
2026-05-05 10:43 -6.61656 -36.02503 9000 ft 244 kts 31°
2026-05-05 10:43 -6.60269 -36.01521 9000 ft 244 kts 31°
2026-05-05 10:44 -6.58877 -36.00537 9000 ft 244 kts 31°
2026-05-05 10:44 -6.57500 -35.99563 9000 ft 244 kts 31°
2026-05-05 10:44 -6.56098 -35.98572 9000 ft 244 kts 31°
2026-05-05 10:44 -6.54700 -35.97583 9000 ft 244 kts 31°
2026-05-05 10:45 -6.53325 -35.96611 9000 ft 244 kts 31°
2026-05-05 10:45 -6.51929 -35.95624 9000 ft 244 kts 31°
2026-05-05 10:45 -6.50526 -35.94632 9000 ft 245 kts 31°
2026-05-05 10:45 -6.49146 -35.93656 9000 ft 245 kts 31°
2026-05-05 10:46 -6.47746 -35.92666 9000 ft 245 kts 31°
2026-05-05 10:46 -6.46367 -35.91692 9000 ft 245 kts 31°
2026-05-05 10:46 -6.44970 -35.90705 9000 ft 245 kts 31°
2026-05-05 10:46 -6.43574 -35.89718 9000 ft 245 kts 31°
2026-05-05 10:47 -6.42185 -35.88736 9000 ft 245 kts 31°
2026-05-05 10:47 -6.40785 -35.87747 9000 ft 245 kts 31°
2026-05-05 10:47 -6.39400 -35.86769 9000 ft 245 kts 31°
2026-05-05 10:47 -6.38019 -35.85793 9000 ft 245 kts 31°
2026-05-05 10:48 -6.36614 -35.84800 9000 ft 245 kts 31°
2026-05-05 10:48 -6.35237 -35.83827 9000 ft 245 kts 31°
2026-05-05 10:48 -6.33837 -35.82839 9000 ft 245 kts 31°
2026-05-05 10:48 -6.32440 -35.81852 9000 ft 245 kts 31°
2026-05-05 10:49 -6.31057 -35.80875 9000 ft 245 kts 31°
2026-05-05 10:49 -6.29664 -35.79891 9000 ft 245 kts 31°
2026-05-05 10:49 -6.28279 -35.78913 9000 ft 245 kts 31°
2026-05-05 10:49 -6.26877 -35.77923 9000 ft 245 kts 31°
2026-05-05 10:50 -6.25480 -35.76937 9000 ft 245 kts 31°
2026-05-05 10:50 -6.24096 -35.75959 9000 ft 245 kts 31°
2026-05-05 10:50 -6.22700 -35.74974 9000 ft 245 kts 31°
2026-05-05 10:50 -6.21322 -35.74001 9000 ft 245 kts 31°
2026-05-05 10:51 -6.19922 -35.73013 9000 ft 245 kts 31°
2026-05-05 10:51 -6.18521 -35.72024 9000 ft 245 kts 31°
2026-05-05 10:51 -6.17142 -35.71050 9000 ft 245 kts 31°
2026-05-05 10:51 -6.15736 -35.70058 9000 ft 245 kts 31°
2026-05-05 10:52 -6.14351 -35.69080 9000 ft 245 kts 31°
2026-05-05 10:52 -6.12956 -35.68096 9000 ft 245 kts 31°
2026-05-05 10:52 -6.11571 -35.67119 9000 ft 245 kts 31°
2026-05-05 10:52 -6.10172 -35.66131 9000 ft 245 kts 31°
2026-05-05 10:53 -6.08787 -35.65155 9000 ft 245 kts 31°
2026-05-05 10:53 -6.07388 -35.64167 9000 ft 245 kts 31°
2026-05-05 10:53 -6.05990 -35.63181 9000 ft 245 kts 31°
2026-05-05 10:53 -6.04605 -35.62204 9000 ft 245 kts 31°
2026-05-05 10:54 -6.03223 -35.61229 9000 ft 245 kts 31°
2026-05-05 10:54 -6.01829 -35.60246 9000 ft 245 kts 31°
2026-05-05 10:54 -6.00421 -35.59253 9000 ft 245 kts 31°
2026-05-05 10:54 -5.99042 -35.58280 9000 ft 245 kts 31°
2026-05-05 10:55 -5.97645 -35.57295 9000 ft 245 kts 31°
2026-05-05 10:55 -5.96247 -35.56309 9000 ft 245 kts 31°
2026-05-05 10:55 -5.94862 -35.55332 9000 ft 245 kts 31°
2026-05-05 10:55 -5.93460 -35.54344 9000 ft 245 kts 31°
2026-05-05 10:56 -5.92072 -35.53365 9000 ft 245 kts 31°
2026-05-05 10:56 -5.90677 -35.52382 8999 ft 243 kts 31°
2026-05-05 10:56 -5.89298 -35.51408 8688 ft 244 kts 31°
2026-05-05 10:56 -5.87910 -35.50430 8328 ft 240 kts 31°
2026-05-05 10:57 -5.86576 -35.49487 7947 ft 232 kts 31°
2026-05-05 10:57 -5.85278 -35.48568 7563 ft 224 kts 31°
2026-05-05 10:57 -5.84025 -35.47684 7185 ft 218 kts 30°
2026-05-05 10:57 -5.82789 -35.46813 6805 ft 214 kts 30°
2026-05-05 10:58 -5.81613 -35.45937 6430 ft 213 kts 38°
2026-05-05 10:58 -5.80659 -35.44790 6068 ft 215 kts 53°
2026-05-05 10:58 -5.79935 -35.43472 5698 ft 215 kts 62°
2026-05-05 10:58 -5.79357 -35.42093 5325 ft 213 kts 66°
2026-05-05 10:59 -5.79019 -35.41167 5076 ft 211 kts 68°
2026-05-05 10:59 -5.78395 -35.39325 4578 ft 208 kts 69°
2026-05-05 10:59 -5.78094 -35.38412 4328 ft 206 kts 70°
2026-05-05 10:59 -5.77658 -35.37053 3950 ft 203 kts 75°
2026-05-05 11:00 -5.77835 -35.35331 3472 ft 176 kts 118°
2026-05-05 11:00 -5.78572 -35.34442 3185 ft 157 kts 139°
2026-05-05 11:00 -5.79123 -35.34005 3051 ft 147 kts 144°
2026-05-05 11:00 -5.79929 -35.33452 2856 ft 138 kts 146°
2026-05-05 11:01 -5.80732 -35.32902 2683 ft 137 kts 144°
2026-05-05 11:01 -5.81491 -35.32340 2540 ft 138 kts 142°
2026-05-05 11:01 -5.82241 -35.31736 2371 ft 139 kts 140°
2026-05-05 11:01 -5.82981 -35.31102 2191 ft 140 kts 138°
2026-05-05 11:02 -5.83701 -35.30446 1920 ft 142 kts 137°
2026-05-05 11:02 -5.84412 -35.29817 1697 ft 129 kts 139°
2026-05-05 11:02 -5.85087 -35.29253 1456 ft 124 kts 140°
2026-05-05 11:02 -5.85747 -35.28704 1257 ft 125 kts 141°
2026-05-05 11:03 -5.86429 -35.28156 1146 ft 125 kts 142°
2026-05-05 11:03 -5.87124 -35.27634 1056 ft 124 kts 143°
2026-05-05 11:03 -5.87806 -35.27100 908 ft 127 kts 141°
2026-05-05 11:03 -5.88509 -35.26518 692 ft 134 kts 140°
2026-05-05 11:04 -5.89235 -35.25918 490 ft 135 kts 141°
2026-05-05 11:04 -5.89932 -35.25359 310 ft 118 kts 141°
2026-05-05 11:04 -5.90519 -35.24890 175 ft 95 kts 141°
2026-05-05 11:04 -5.90883 -35.24594 174 ft 32 kts 141°
2026-05-05 11:05 -5.90902 -35.24500 174 ft 1 kts 28°